Powrót do katalogu

PUNCH-NFI00

AktywnyNaukaSSO
NORAD 63178·PAYLOAD·🇺🇸 United States

Wystrzelony Mar 12, 2025 z Vandenberg Space Force Base

Loading…

Następne Przeloty (najbliższe 24 godziny)

TLE

ŚwieżeSource: Space-Track

Epoka: Sep 14, 2026, 10:20 UTC

1 63178U 25047A   26257.43073319  .00000348  00000-0  59477-4 0  9996
2 63178  97.9584  81.3598 0009983 227.2421 132.7949 14.74844722 81234

Śledź PUNCH-NFI00 w czasie rzeczywistym z AllMySat

Download on the App Store